Portada
METAR-TAF:

METAR-TAF

Aeroports :

Coatesville, Pennsilvània, Estats Units d'Amèrica

latitud: 39-58-44N, longitud: 075-51-56W, altitud: 201 m

Observació

L'informe es va fer fa 17 minuts, a les 23:15 UTC
Vent 11 kt del Nord-Oest
Temperatura 5°C
Humitat 65%
Pressió 1014 hPa
Visibilitat: 16.1 km
Cel clar

METAR: KMQS 222315Z AUTO 31011KT 10SM CLR 05/M01 A2994 RMK AO2

Hora: 18:32 (23:32 UTC)


TAF: manca

Observacions i pronòstics meteorològics de més de 4000 aeroports (METAR i TAF).

Les estacions disponibles són els punts grocs i vermells al mapa.

Posi el ratolí al punt desitjat per veure el nom de l'estació.

Feu clic per veure les observacions i els pronòstics meteorològics.

Per canviar el mapa: feu clic els botons verds amb una creu de color negre per apropar; al botó verd amb un guió per allunyar la imatge; o en les fletxes verdes per a mapes adjacents.


METAR-TAF: